Nellis AFB, NV

4:21 AM PST on December 15, 2017 (GMT -0800)
Nellis Air Force Base

Weather History for KLSV - September, 2012

Change the Weather History Date:

Monday, September 17, 2012

  Actual Average Record
Temperature  
Mean Temperature 82 °F -  
Max Temperature 95 °F 92 °F 105 °F (2000)
Min Temperature 68 °F 66 °F 59 °F (2005)
Cooling Degree Days 16    
Growing Degree Days 32 (Base 50)    
Moisture  
Dew Point 38 °F    
Average Humidity 22    
Maximum Humidity 34    
Minimum Humidity 11    
Precipitation  
Precipitation 0.00 in - - ()
Sea Level Pressure  
Sea Level Pressure 29.91 in    
Wind  
Wind Speed 2 mph (East)    
Max Wind Speed 7 mph    
Max Gust Speed -    
Visibility 10 miles    
Events      
Averages and records for this station are not official NWS values.
T = Trace of Precipitation, MM = Missing Value Source: NWS Daily Summary

Daily Weather History Graph

Daily Weather History Graph

Search for Another Location

Airport or City:

Trip Planner

Search our weather history database for the weather conditions in past years. The results will help you decide how hot, cold, wet, or windy it might be!

Date:

Astronomy

Sep. 17, 2012 Rise Set
Actual Time 6:24 AM PDT 6:43 PM PDT
Civil Twilight 5:58 AM PDT 7:09 PM PDT
Nautical Twilight 5:28 AM PDT 7:39 PM PDT
Astronomical Twilight 4:57 AM PDT 8:09 PM PDT
Moon 8:13 AM PDT (9/17) 7:34 PM PDT (9/17)
Length of Visible Light 13h 10m
Length of Day
12h 19m
Waxing Crescent, 4% of the Moon is Illuminated
Sep 17
Waxing Crescent
Sep 22
First Quarter
Sep 29
Full
Oct 8
Last Quarter
Oct 15
New

Hourly Weather History & Observations

Time (PDT) Temp. Dew Point Humidity Pressure Visibility Wind Dir Wind Speed Gust Speed Precip Events Conditions
12:55 AM 76.1 °F 37.6 °F 25% 29.91 in 10.0 mi Calm Calm - N/A   Clear
1:55 AM 75.4 °F 36.9 °F 25% 29.90 in 10.0 mi ENE 3.5 mph - N/A   Clear
2:55 AM 74.3 °F 37.2 °F 26% 29.91 in 10.0 mi Calm Calm - N/A   Clear
3:55 AM 69.6 °F 37.9 °F 31% 29.91 in 10.0 mi East 4.6 mph - N/A   Clear
4:55 AM 69.3 °F 37.8 °F 32% 29.91 in 10.0 mi ENE 5.8 mph - N/A   Clear
5:55 AM 68.7 °F 39.0 °F 34% 29.92 in 10.0 mi NNE 4.6 mph - N/A   Clear
6:55 AM 70.3 °F 38.1 °F 31% 29.95 in 10.0 mi ENE 6.9 mph - N/A   Clear
7:55 AM 75.9 °F 43.0 °F 31% 29.96 in 10.0 mi Calm Calm - N/A   Clear
8:55 AM 78.3 °F 39.4 °F 25% 29.97 in 10.0 mi Calm Calm - N/A   Clear
9:55 AM 83.7 °F 40.3 °F 21% 29.98 in 10.0 mi Calm Calm - N/A   Clear
10:55 AM 87.1 °F 41.4 °F 20% 29.96 in 10.0 mi SSE 5.8 mph - N/A   Clear
11:55 AM 89.2 °F 42.4 °F 19% 29.94 in 10.0 mi NE 3.5 mph - N/A   Clear
12:55 PM 90.9 °F 41.2 °F 18% 29.93 in 10.0 mi SSW 4.6 mph - N/A   Clear
1:55 PM 93.7 °F 39.2 °F 15% 29.91 in 10.0 mi South 6.9 mph - N/A   Clear
2:55 PM 94.1 °F 34.7 °F 12% 29.88 in 10.0 mi WSW 3.5 mph - N/A   Clear
3:55 PM 95.7 °F 33.8 °F 11% 29.88 in 10.0 mi Calm Calm - N/A   Clear
4:55 PM 95.0 °F 32.9 °F 11% 29.87 in 10.0 mi Calm Calm - N/A   Clear
5:55 PM 94.5 °F 32.0 °F 11% 29.86 in 10.0 mi Calm Calm - N/A   Clear
6:55 PM 93.2 °F 31.8 °F 11% 29.86 in 10.0 mi Calm Calm - N/A   Clear
7:55 PM 84.9 °F 39.6 °F 20% 29.88 in 10.0 mi ENE 6.9 mph - N/A   Clear
8:55 PM 83.1 °F 39.4 °F 21% 29.89 in 10.0 mi NNE 4.6 mph - N/A   Clear
9:55 PM 82.0 °F 38.3 °F 21% 29.90 in 10.0 mi Calm Calm - N/A   Clear
10:55 PM 79.9 °F 37.8 °F 22% 29.90 in 10.0 mi SW 4.6 mph - N/A   Clear
11:55 PM 77.5 °F 38.7 °F 25% 29.91 in 10.0 mi Calm Calm - N/A   Clear